Location: Hochstatterhof
(48.7256°N, 10.3487°E)
Time: 20:46:40
(UTC+00:00)

Cosmos 1408 Rocket - Pass Details

Date: 26 September 2023
Orbit: 598 x 628 km, 82.6° (Epoch: 08 December)

Event Time Altitude Azimuth Distance (km) Brightness Sun altitude
Rises 03:14:42 0° 353° (N) 2,889 7.2 -19.4°
Reaches altitude 10° 03:16:57 10° 357° (N) 1,984 6.4 -19.1°
Maximum altitude 03:21:19 62° 78° (ENE) 702 4.1 -18.4°
Drops below altitude 10° 03:25:40 10° 159° (SSE) 1,987 6.2 -17.8°
Sets 03:27:55 0° 163° (SSE) 2,892 7.0 -17.4°
